Radioactive Concentration measured by Seawater Radiation Monitor near Fukushima Daiichi Nuclear Power Station
Date,Time,Cs137(Bq/L),Cs134(Bq/L),Total β(Bq/L)
2018/03/04,00:00,1.3,0.10,ND
2018/03/04,00:10,1.2,0.090,ND
2018/03/04,00:20,1.3,0.082,ND
2018/03/04,00:30,1.2,0.087,ND
2018/03/04,00:40,1.3,0.079,ND
2018/03/04,00:50,1.3,0.086,ND
2018/03/04,01:00,1.3,0.088,ND
2018/03/04,01:10,1.3,0.089,ND
2018/03/04,01:20,1.3,0.093,ND
2018/03/04,01:30,1.3,0.10,ND
2018/03/04,01:40,1.2,0.097,ND
2018/03/04,01:50,1.2,0.096,ND
2018/03/04,02:00,1.2,0.083,ND
2018/03/04,02:10,1.2,0.077,10
2018/03/04,02:20,1.2,0.075,9.7
2018/03/04,02:30,1.2,0.066,ND
2018/03/04,02:40,1.2,0.070,ND
2018/03/04,02:50,1.2,0.072,ND
2018/03/04,03:00,1.2,0.073,ND
2018/03/04,03:10,1.2,0.086,ND
2018/03/04,03:20,1.2,0.077,9.2
2018/03/04,03:30,1.2,0.078,9.3
2018/03/04,03:40,1.2,0.079,9.7
2018/03/04,03:50,1.2,0.063,9.7
2018/03/04,04:00,1.2,0.069,8.9
2018/03/04,04:10,1.2,0.077,9.5
2018/03/04,04:20,1.1,0.083,ND
2018/03/04,04:30,1.1,0.087,9.3
2018/03/04,04:40,1.1,0.092,8.8
2018/03/04,04:50,1.2,0.077,9.5
2018/03/04,05:00,1.1,0.081,9.0
2018/03/04,05:10,1.1,0.087,10
2018/03/04,05:20,1.1,0.088,10
2018/03/04,05:30,1.1,0.081,10
2018/03/04,05:40,1.1,0.077,9.3
2018/03/04,05:50,1.2,0.079,9.3
2018/03/04,06:00,1.2,0.070,ND
2018/03/04,06:10,1.2,0.061,ND
2018/03/04,06:20,1.2,0.064,ND
2018/03/04,06:30,1.2,0.062,ND
2018/03/04,06:40,1.3,0.058,ND
2018/03/04,06:50,1.3,0.058,ND
2018/03/04,07:00,1.3,0.069,ND
2018/03/04,07:10,1.3,0.077,ND
2018/03/04,07:20,1.3,0.069,ND
2018/03/04,07:30,1.3,0.077,ND
2018/03/04,07:40,1.3,0.076,ND
2018/03/04,07:50,1.3,0.085,ND
2018/03/04,08:00,1.3,0.078,ND
2018/03/04,08:10,1.3,0.071,ND
2018/03/04,08:20,1.3,0.076,ND
2018/03/04,08:30,1.4,0.072,ND
2018/03/04,08:40,1.4,0.067,ND
2018/03/04,08:50,1.3,0.074,ND
2018/03/04,09:00,1.3,0.070,ND
2018/03/04,09:10,1.3,0.075,ND
2018/03/04,09:20,1.3,0.069,ND
2018/03/04,09:30,1.3,0.078,ND
2018/03/04,09:40,1.3,0.081,ND
2018/03/04,09:50,1.3,0.083,ND
2018/03/04,10:00,1.3,0.091,ND
2018/03/04,10:10,1.3,0.10,ND
2018/03/04,10:20,1.3,0.094,ND
2018/03/04,10:30,1.3,0.084,ND
2018/03/04,10:40,1.3,0.082,ND
2018/03/04,10:50,1.2,0.093,ND
2018/03/04,11:00,1.3,0.081,ND
2018/03/04,11:10,1.3,0.070,ND
2018/03/04,11:20,1.3,0.074,ND
2018/03/04,11:30,1.3,0.076,ND
2018/03/04,11:40,1.3,0.067,ND
2018/03/04,11:50,1.3,0.060,ND
2018/03/04,12:00,1.3,0.065,ND
2018/03/04,12:10,1.3,0.060,ND
2018/03/04,12:20,1.3,0.064,ND
2018/03/04,12:30,1.3,0.069,ND
2018/03/04,12:40,1.2,0.088,ND
2018/03/04,12:50,1.2,0.085,ND
2018/03/04,13:00,1.2,0.083,ND
2018/03/04,13:10,1.2,0.082,ND
2018/03/04,13:20,1.2,0.076,ND
2018/03/04,13:30,1.2,0.069,ND
2018/03/04,13:40,1.2,0.054,ND
2018/03/04,13:50,1.2,0.053,ND
2018/03/04,14:00,1.2,0.051,ND
2018/03/04,14:10,1.2,0.053,10
2018/03/04,14:20,1.2,0.055,11
2018/03/04,14:30,1.2,0.060,ND
2018/03/04,14:40,1.2,0.067,ND
2018/03/04,14:50,1.2,0.067,ND
2018/03/04,15:00,1.1,0.071,ND
2018/03/04,15:10,1.1,0.070,ND
2018/03/04,15:20,1.1,0.062,ND
2018/03/04,15:30,1.1,0.061,ND
2018/03/04,15:40,1.1,0.055,ND
2018/03/04,15:50,1.2,0.030,ND
2018/03/04,16:00,1.1,0.045,11
2018/03/04,16:10,1.2,0.038,9.3
2018/03/04,16:20,1.2,0.025,8.8
2018/03/04,16:30,1.1,0.044,ND
2018/03/04,16:40,1.1,0.046,ND
2018/03/04,16:50,1.1,0.049,10
2018/03/04,17:00,1.1,0.049,ND
2018/03/04,17:10,1.1,0.043,9.9
2018/03/04,17:20,1.1,0.042,9.2
2018/03/04,17:30,1.2,0.041,9.5
2018/03/04,17:40,1.2,0.038,ND
2018/03/04,17:50,1.2,0.042,ND
2018/03/04,18:00,1.2,0.047,ND
2018/03/04,18:10,1.2,0.065,ND
2018/03/04,18:20,1.2,0.065,ND
2018/03/04,18:30,1.1,0.064,ND
2018/03/04,18:40,1.1,0.075,ND
2018/03/04,18:50,1.1,0.069,ND
2018/03/04,19:00,1.1,0.078,ND
2018/03/04,19:10,1.1,0.072,ND
2018/03/04,19:20,1.1,0.073,ND
2018/03/04,19:30,1.1,0.072,9.0
2018/03/04,19:40,1.1,0.063,11
2018/03/04,19:50,1.1,0.063,9.3
2018/03/04,20:00,1.1,0.053,11
2018/03/04,20:10,1.1,0.053,9.3
2018/03/04,20:20,1.2,0.048,ND
2018/03/04,20:30,1.1,0.057,ND
2018/03/04,20:40,1.1,0.060,ND
2018/03/04,20:50,1.1,0.064,ND
2018/03/04,21:00,1.1,0.069,ND
2018/03/04,21:10,1.1,0.070,ND
2018/03/04,21:20,1.1,0.073,ND
2018/03/04,21:30,1.2,0.066,ND
2018/03/04,21:40,1.2,0.057,ND
2018/03/04,21:50,1.2,0.053,ND
2018/03/04,22:00,1.2,0.053,ND
2018/03/04,22:10,1.3,0.056,ND
2018/03/04,22:20,1.2,0.063,ND
2018/03/04,22:30,1.2,0.068,ND
2018/03/04,22:40,1.3,0.063,ND
2018/03/04,22:50,1.2,0.079,9.3
2018/03/04,23:00,1.2,0.082,ND
2018/03/04,23:10,1.2,0.083,ND
2018/03/04,23:20,1.2,0.074,ND
2018/03/04,23:30,1.2,0.064,ND
2018/03/04,23:40,1.2,0.078,ND
2018/03/04,23:50,1.2,0.068,ND
